WXForecasting.com
Aberdeen, SD - Weather Station Data
 
Daily Summary for January 22, 2017 Units:  English    Metric   Both
« Previous Day
Next Day »
Daily Weekly Monthly Yearly Custom
  Current: High: Low: Average:
Temperature: 31.7 °F 31.9 °F 30.2 °F 31.1 °F
Dew Point: 28.0 °F 28.0 °F 27.0 °F 27.3 °F
Humidity: 85 % 87 % 84 % 86 %
Wind Speed: 3.0 mph 7.0 mph 0.0 mph 2.3 mph
Wind Gust: 8.0 mph 13.0 mph - -
Wind:SE - - SSW
Pressure: 29.89 in 29.89 in 29.84 in -
Precipitation: 0.00 in      
Historical Graphs
 
 
Tabular Data for January 22, 2017
Time Temperature Dew Point Pressure Wind Wind Speed Wind Gust Humidity Rainfall Rate (Hourly) solar Conditions
09:15 31.0 °F 28.0 °F 29.84 in NNW 2.0 mph 4.0 mph 87 % 0.00 in weatherlink.com 1.10 W/m2
09:30 31.1 °F 27.0 °F 29.86 in WSW 2.0 mph 7.0 mph 86 % 0.00 in weatherlink.com 1.10 W/m2
09:45 30.8 °F 27.0 °F 29.86 in NW 2.0 mph 4.0 mph 86 % 0.00 in weatherlink.com 1.10 W/m2
10:00 30.2 °F 27.0 °F 29.86 in Calm   7.0 mph 86 % 0.00 in weatherlink.com 1.10 W/m2
10:15 30.4 °F 27.0 °F 29.86 in Calm   5.0 mph 87 % 0.00 in weatherlink.com 1.10 W/m2
10:30 31.0 °F 28.0 °F 29.86 in South 2.0 mph 6.0 mph 87 % 0.00 in weatherlink.com 1.10 W/m2
10:45 31.0 °F 27.0 °F 29.87 in Calm   7.0 mph 86 % 0.00 in weatherlink.com 1.10 W/m2
11:00 31.0 °F 27.0 °F 29.87 in North 2.0 mph 8.0 mph 86 % 0.00 in weatherlink.com 1.10 W/m2
11:15 31.0 °F 27.0 °F 29.88 in SSE 1.0 mph 7.0 mph 86 % 0.00 in weatherlink.com 1.10 W/m2
11:30 31.0 °F 27.0 °F 29.87 in NNE 2.0 mph 7.0 mph 86 % 0.00 in weatherlink.com 1.10 W/m2
11:45 31.2 °F 28.0 °F 29.88 in NE 3.0 mph 10.0 mph 86 % 0.00 in weatherlink.com 1.10 W/m2
12:00 31.3 °F 28.0 °F 29.87 in West 3.0 mph 12.0 mph 86 % 0.00 in weatherlink.com 1.10 W/m2
12:15 31.7 °F 28.0 °F 29.87 in Calm   6.0 mph 86 % 0.00 in weatherlink.com 1.10 W/m2
12:30 31.9 °F 28.0 °F 29.87 in WSW 1.0 mph 6.0 mph 85 % 0.00 in weatherlink.com 1.10 W/m2
12:45 31.2 °F 27.0 °F 29.87 in SW 2.0 mph 9.0 mph 85 % 0.00 in weatherlink.com 1.10 W/m2
13:00 30.8 °F 27.0 °F 29.87 in WSW 5.0 mph 11.0 mph 86 % 0.00 in weatherlink.com 1.10 W/m2
13:15 30.8 °F 27.0 °F 29.87 in SSW 3.0 mph 10.0 mph 86 % 0.00 in weatherlink.com 1.10 W/m2
13:30 30.6 °F 27.0 °F 29.86 in WSW 1.0 mph 8.0 mph 86 % 0.00 in weatherlink.com 1.10 W/m2
13:45 30.8 °F 27.0 °F 29.86 in SW 4.0 mph 10.0 mph 86 % 0.00 in weatherlink.com 1.10 W/m2
14:00 31.0 °F 27.0 °F 29.86 in SSW 7.0 mph 10.0 mph 85 % 0.00 in weatherlink.com 1.10 W/m2
14:15 31.0 °F 27.0 °F 29.87 in NE 1.0 mph 10.0 mph 85 % 0.00 in weatherlink.com 1.10 W/m2
14:30 31.0 °F 27.0 °F 29.87 in West 2.0 mph 12.0 mph 85 % 0.00 in weatherlink.com 1.10 W/m2
14:45 31.0 °F 27.0 °F 29.87 in SW 2.0 mph 10.0 mph 85 % 0.00 in weatherlink.com 1.10 W/m2
15:00 31.1 °F 27.0 °F 29.87 in WNW 1.0 mph 9.0 mph 85 % 0.00 in weatherlink.com 1.10 W/m2
15:15 31.2 °F 27.0 °F 29.87 in WNW 5.0 mph 9.0 mph 84 % 0.00 in weatherlink.com 1.10 W/m2
15:30 31.5 °F 28.0 °F 29.88 in North 5.0 mph 7.0 mph 85 % 0.00 in weatherlink.com 1.10 W/m2
15:45 31.7 °F 28.0 °F 29.88 in East 4.0 mph 13.0 mph 85 % 0.00 in weatherlink.com 1.10 W/m2
16:00 31.7 °F 28.0 °F 29.88 in NE 3.0 mph 8.0 mph 85 % 0.00 in weatherlink.com 1.10 W/m2
16:15 31.7 °F 28.0 °F 29.89 in SE 3.0 mph 8.0 mph 85 % 0.00 in weatherlink.com 1.10 W/m2
Compliments of Weather Underground - 2.5 mb

16 Visitors online right now
Max visitors today: 27 at 02:30 pm EST
This month: 85 at 01-10-2017 02:14 pm EST
This year: 85 at 01-10-2017 02:14 pm EST
All time: 104 at 01-04-2012 03:34 am EST
See Who is Online